This demonstration page uses our WeatherBlox Daily Observations layout. Learn more.

Left ArrowRight Arrow

31.84235, -102.49876

Hourly Observations for April 30, 2022

Temp ( °F °C ) Dew Point ( °F °C ) Humidity (%) Winds ( mph kmh ) Pressure ( in mb ) Visibility ( mi km ) Precip ( " mm )
12:53 am 00:53 Clear 68 20 6 -14.4 9 9 W 7 11 29.65 1004 10 16 0.00 0.00
1:53 am 01:53 Clear 65 18.3 6 -14.4 10 10 WNW 7 11 29.66 1004 10 16 0.00 0.00
2:53 am 02:53 Clear 66 18.9 7 -13.9 10 10 S 8 13 29.67 1005 10 16 0.00 0.00
3:53 am 03:53 Clear 64 17.8 36 2.2 35 35 NNW 10 17 29.70 1006 10 16 0.00 0.00
4:14 am 04:14 Clear 64 17.8 10 -12.2 12 12 N 15 24 29.75 1008 10 16 0.00 0.00
4:31 am 04:31 Mostly Cloudy with Haze 63 17.2 21 -6.1 20 20 NNE 21 33 29.77 1008 5 8 0.00 0.00
4:53 am 04:53 Cloudy with Haze 63 17.2 25 -3.9 24 24 NE 18 30 29.73 1007 6 10 0.00 0.00
5:21 am 05:21 Cloudy 62 16.7 26 -3.3 25 25 NE 16 26 29.82 1010 7 11 0.00 0.00
5:53 am 05:53 Mostly Cloudy 61 16.1 26 -3.3 26 26 NE 17 28 29.78 1008 9 14 0.00 0.00
6:53 am 06:53 Clear 59 15 26 -3.3 28 28 NE 14 22 29.82 1010 10 16 0.00 0.00
7:53 am 07:53 Sunny 58 14.4 26 -3.3 29 29 NE 13 20 29.86 1011 10 16 0.00 0.00
8:53 am 08:53 Sunny 64 17.8 24 -4.4 22 22 NE 21 33 29.88 1012 10 16 0.00 0.00
9:48 am 09:48 Mostly Sunny 66 19 25 -4 21 21 NE 24 39 29.92 1013 10 16 0.00 0.00
9:53 am 09:53 Sunny 67 19.4 24 -4.4 20 20 ENE 26 43 29.92 1013 10 16 0.00 0.00
10:53 am 10:53 Mostly Sunny 71 21.7 23 -5 16 16 ENE 22 35 29.92 1013 9 14 0.00 0.00
11:10 am 11:10 Mostly Cloudy 72 22.2 24 -4.4 17 17 ENE 21 33 29.92 1013 8 13 0.00 0.00
11:53 am 11:53 Cloudy 74 23.3 23 -5 15 15 ENE 17 28 29.94 1014 8 13 0.00 0.00
12:03 pm 12:03 Cloudy 74 23.3 21 -6.1 14 14 ENE 16 26 29.91 1013 9 14 0.00 0.00
12:53 pm 12:53 Sunny 77 25 22 -5.6 13 13 E 16 26 29.91 1013 10 16 0.00 0.00
1:53 pm 13:53 Sunny 78 25.6 25 -3.9 14 14 E 17 28 29.90 1012 10 16 0.00 0.00
2:53 pm 14:53 Sunny 79 26.1 27 -2.8 15 15 E 13 20 29.87 1012 10 16 0.00 0.00
3:53 pm 15:53 Sunny 80 26.7 27 -2.8 14 14 E 6 9 29.85 1011 10 16 0.00 0.00
4:53 pm 16:53 Sunny 82 27.8 26 -3.3 13 13 E 9 15 29.82 1010 10 16 0.00 0.00
5:53 pm 17:53 Sunny 82 27.8 26 -3.3 13 13 E 8 13 29.81 1010 10 16 0.00 0.00
6:53 pm 18:53 Sunny 82 27.8 26 -3.3 13 13 E 7 11 29.81 1010 10 16 0.00 0.00
7:53 pm 19:53 Sunny 80 26.7 27 -2.8 14 14 E 10 17 29.81 1010 10 16 0.00 0.00
8:53 pm 20:53 Clear 74 23.3 26 -3.3 17 17 E 8 13 29.82 1010 10 16 0.00 0.00
9:53 pm 21:53 Clear 71 21.7 25 -3.9 18 18 E 9 15 29.85 1011 10 16 0.00 0.00
10:53 pm 22:53 Clear 71 21.7 26 -3.3 19 19 E 12 19 29.86 1011 10 16 0.00 0.00
11:53 pm 23:53 Clear 70 21.1 27 -2.8 20 20 E 14 22 29.85 1011 10 16 0.00 0.00

Powered by AerisWeather